Regional Weather Roundup
Issued by NWS

Home | Current Version | Previous Version | Text Only | Print | Product List | Glossary On
Versions: 1 2 3 4 5 6 7 8 9 10 11 12 13 14 15 16 17 18 19 20 21 22 23 24 25 26 27
000
ASUS42 KKEY 300610
RWRKEY

FLORIDA REGIONAL WEATHER ROUNDUP FOR THE FLORIDA KEYS
NATIONAL WEATHER SERVICE KEY WEST FLORIDA
200 AM EDT FRI SEP 30 2016

...SOUTH FLORIDA AND THE KEYS...

CITY           SKY/WX    TMP DP  RH WIND       PRES   REMARKS
FORT MYERS     PTCLDY    78  74  87 E3        30.03F
SW REGIONAL AP PTCLDY    77  74  90 NE3       30.04F
NAPLES         PTCLDY    78  76  93 E5        30.01F
MIAMI          CLOUDY    81  75  82 CALM      30.04F
WEST KENDALL   CLOUDY    79  74  84 S3        30.04F
HOMESTEAD      CLOUDY    78  76  93 SW2       30.03F
MARATHON       PTCLDY    80  75  84 CALM      30.04F
BOCA CHICA NAS PTCLDY    81  74  79 SE5       30.04F THUNDER
KEY WEST INTL  PTCLDY    84  76  76 SE6       30.04F HX  93

...INTERNATIONAL WEATHER...

CITY           SKY/WX    TMP DP  RH WIND       PRES   REMARKS
NASSAU BAHAMAS PTCLDY    81  75  83 E5        30.08R THUNDER
CANCUN MEXICO  PTCLDY    77  77 100 NW2       30.02F
COZUMEL MEXICO PTCLDY    79  77  94 CALM      30.03F

ADJACENT COASTAL WATERS...

STATION/POSITION TIME  SKY/WX   TEMP    WIND        PRES    WAVE
                                AIR SEA DIR/SP/G            HT/PER
                 (UTC)          (F)     (DEG/KT/KT) (MB)    (FT/S)
PULASKI SHOAL LI 0600            83     140/  3/  4 1017.3F
SAND KEY         0550            83      80/  6/  6 1017.8F
LONG KEY         0500            84 87  100/  5/  6 1018.2F
FOWEY ROCKS      0500            83 84  150/  6/  7 1018.4F

$$




USA.gov is the U.S. government's official web portal to all federal, state and local government web resources and services.